FW4085 Weather Reports


Display with metric or nautical units.
time (UTC)temp
F
wind
direction
speed
MPH
gust
MPH
rain 1hr
in
rain 24hr
in
rain mn
in
humidity
%
barometer
mb
20260505003520 63 274 0.0 2.0 0.00 0.00 0.00 45 856.3
20260505002520 63 256 1.0 5.0 0.00 0.00 0.00 45 856.3
20260505001557 64 251 1.0 3.0 0.00 0.00 0.00 45 856.3
20260505000517 64 241 2.0 4.0 0.00 0.00 0.00 44 856.3
20260504235520 64 253 2.0 4.0 0.00 0.00 0.00 44 856.3
20260504234520 65 253 1.0 3.0 0.00 0.00 0.00 43 856.4
20260504233517 66 214 2.0 7.0 0.00 0.00 0.00 43 856.4
20260504232518 66 208 1.0 3.0 0.00 0.00 0.00 42 856.5
20260504231538 67 210 1.0 5.0 0.00 0.00 0.00 41 856.5
20260504230522 67 228 3.0 6.0 0.00 0.00 0.00 41 856.5
20260504225519 68 225 3.0 9.0 0.00 0.00 0.00 40 856.6
20260504224518 69 249 2.0 6.0 0.00 0.00 0.00 39 856.7
20260504223519 69 234 2.0 7.0 0.00 0.00 0.00 40 856.7
20260504222519 69 230 1.0 4.0 0.00 0.00 0.00 40 856.7
20260504221539 70 225 1.0 6.0 0.00 0.00 0.00 39 856.8
20260504220520 70 240 2.0 7.0 0.00 0.00 0.00 40 856.8
20260504215539 70 229 2.0 6.0 0.00 0.00 0.00 40 856.8
20260504214519 69 141 1.0 4.0 0.00 0.00 0.00 41 856.7
20260504213517 70 226 2.0 8.0 0.00 0.00 0.00 40 856.8
20260504212540 70 236 2.0 10.0 0.00 0.00 0.00 40 856.8
20260504211519 69 226 2.0 7.0 0.00 0.00 0.00 41 856.8
20260504210541 69 227 3.0 8.0 0.00 0.00 0.00 41 856.8
20260504205517 69 221 3.0 8.0 0.00 0.00 0.00 41 856.7
20260504204537 69 220 3.0 9.0 0.00 0.00 0.00 41 856.8
20260504203521 69 244 3.0 8.0 0.00 0.00 0.00 42 856.7
20260504202518 69 245 4.0 10.0 0.00 0.00 0.00 41 856.7
20260504201518 69 261 2.0 8.0 0.00 0.00 0.00 41 856.7
20260504200538 69 249 3.0 8.0 0.00 0.00 0.00 42 856.8
20260504195539 68 213 3.0 8.0 0.00 0.00 0.00 42 856.7
20260504194538 68 229 2.0 7.0 0.00 0.00 0.00 42 856.7
20260504193519 69 273 3.0 8.0 0.00 0.00 0.00 41 856.8
20260504192519 69 224 3.0 10.0 0.00 0.00 0.00 42 856.8
20260504191519 67 210 3.0 10.0 0.00 0.00 0.00 43 856.7
20260504190519 68 230 4.0 8.0 0.00 0.00 0.00 41 856.6
20260504185520 69 220 3.0 7.0 0.00 0.00 0.00 41 856.7
20260504184520 68 214 4.0 12.0 0.00 0.00 0.00 42 856.7
20260504183520 68 218 4.0 12.0 0.00 0.00 0.00 42 856.7
20260504182517 67 218 4.0 9.0 0.00 0.00 0.00 43 856.7
20260504181517 66 217 4.0 10.0 0.00 0.00 0.00 44 856.6
20260504180540 66 239 4.0 11.0 0.00 0.00 0.00 44 856.5
20260504175518 66 213 4.0 9.0 0.00 0.00 0.00 43 856.5
20260504174538 66 240 4.0 10.0 0.00 0.00 0.00 43 856.6
20260504173518 65 225 3.0 8.0 0.00 0.00 0.00 43 856.5
20260504172518 64 235 4.0 8.0 0.00 0.00 0.00 45 856.5
20260504171518 63 233 3.0 8.0 0.00 0.00 0.00 46 856.4
20260504170518 64 208 3.0 10.0 0.00 0.00 0.00 45 856.4
20260504150517 61 252 4.0 9.0 0.00 0.00 0.00 48 856.2
20260504140519 60 245 3.0 11.0 0.00 0.00 0.00 48 856.2
20260504130520 56 221 4.0 9.0 0.00 0.00 0.00 49 855.9
20260504110519 48 76 2.0 4.0 0.00 0.00 0.00 67 855.3
20260504100523 40 14 1.0 2.0 0.00 0.00 0.00 79 854.8
20260504081525 43 200 1.0 2.0 0.00 0.00 0.00 76 854.9
20260504080525 44 107 1.0 1.0 0.00 0.00 0.00 75 855.0
20260504050539 45 257 2.0 3.0 0.00 0.00 0.00 65 855.1
20260504045517 45 248 2.0 4.0 0.00 0.00 0.00 67 855.1
20260504044517 45 251 2.0 3.0 0.00 0.00 0.00 65 855.1
20260504043520 45 272 1.0 2.0 0.00 0.00 0.00 65 855.1
20260504042540 45 248 2.0 3.0 0.00 0.00 0.00 65 855.1
20260504041537 45 249 2.0 3.0 0.00 0.00 0.00 65 855.1
20260504040538 45 248 2.0 3.0 0.00 0.00 0.00 65 855.1
20260504035518 45 255 2.0 4.0 0.00 0.00 0.00 64 855.0
20260504034558 44 256 2.0 4.0 0.00 0.00 0.00 63 855.0
20260504033518 45 249 2.0 4.0 0.00 0.00 0.00 63 855.0
20260504032518 45 281 1.0 3.0 0.00 0.00 0.00 61 855.1
20260504031518 45 254 2.0 4.0 0.00 0.00 0.00 61 855.1
20260504030518 46 247 2.0 4.0 0.00 0.00 0.00 57 855.1
20260504025539 46 241 3.0 6.0 0.00 0.00 0.00 55 855.2
20260504024519 47 226 2.0 5.0 0.00 0.00 0.00 54 855.2
20260504023519 47 228 3.0 5.0 0.00 0.00 0.00 52 855.2
20260504022516 47 242 3.0 5.0 0.00 0.00 0.00 53 855.2
20260504021539 47 240 3.0 6.0 0.00 0.00 0.00 52 855.2
20260504020520 47 239 3.0 7.0 0.00 0.00 0.00 52 855.2
20260504015540 47 243 2.0 6.0 0.00 0.00 0.00 51 855.2
20260504014537 47 254 3.0 6.0 0.00 0.00 0.00 50 855.2
20260504013537 47 232 3.0 6.0 0.00 0.00 0.00 49 855.2
20260504012520 47 243 1.0 4.0 0.00 0.00 0.00 49 855.2
20260504011517 48 246 3.0 5.0 0.00 0.00 0.00 48 855.2
20260504010538 48 254 3.0 9.0 0.00 0.00 0.00 47 855.2
20260504005518 48 231 2.0 4.0 0.00 0.00 0.00 47 855.2
20260504004518 49 246 3.0 6.0 0.00 0.00 0.00 45 855.3